VK2RZ Weather Reports


Display with metric or nautical units.
time (UTC)temp
F
wind
direction
speed
MPH
gust
MPH
rain 1hr
in
rain 24hr
in
rain mn
in
humidity
%
barometer
mb
20260509092120 60 0 0.0 0.0 0.00 0.00 0.00 7 1025.9
20260509091120 61 0 0.0 0.0 0.00 0.00 0.00 7 1025.7
20260509090120 61 0 0.0 0.0 0.00 0.00 0.00 7 1025.6
20260509085120 61 0 0.0 0.0 0.00 0.00 0.00 7 1025.4
20260509084120 60 0 0.0 0.0 0.00 0.00 0.00 7 1025.3
20260509083120 61 0 0.0 0.0 0.00 0.00 0.00 7 1025.2
20260509082120 60 0 0.0 0.0 0.00 0.00 0.00 7 1025.1
20260509081120 61 0 0.0 0.0 0.00 0.00 0.00 7 1025.0
20260509080120 61 0 0.0 0.0 0.00 0.00 0.00 7 1024.8
20260509075120 60 0 0.0 0.0 0.00 0.00 0.00 7 1024.8
20260509074120 61 0 0.0 0.0 0.00 0.00 0.00 7 1024.7
20260509073120 61 0 0.0 0.0 0.00 0.00 0.00 7 1024.6
20260509072120 61 0 0.0 0.0 0.00 0.00 0.00 7 1024.6
20260509071120 62 0 0.0 1.0 0.00 0.00 0.00 7 1024.5
20260509070120 62 0 0.0 0.0 0.00 0.00 0.00 7 1024.4
20260509065120 63 70 1.0 3.0 0.00 0.00 0.00 6 1024.3
20260509064120 63 89 2.0 2.0 0.00 0.00 0.00 6 1024.1
20260509063120 63 0 0.0 3.0 0.00 0.00 0.00 6 1024.1
20260509062120 63 0 0.0 8.0 0.00 0.00 0.00 6 1024.0
20260509061120 64 74 1.0 7.0 0.00 0.00 0.00 6 1023.9
20260509060120 64 135 4.0 4.0 0.00 0.00 0.00 6 1023.7
20260509055120 64 143 1.0 6.0 0.00 0.00 0.00 6 1023.7
20260509054120 64 117 3.0 8.0 0.00 0.00 0.00 6 1023.7
20260509053119 65 149 1.0 3.0 0.00 0.00 0.00 6 1023.6
20260509052118 65 111 3.0 8.0 0.00 0.00 0.00 6 1023.6
20260509051118 65 114 8.0 10.0 0.00 0.00 0.00 6 1023.5
20260509050118 65 135 2.0 8.0 0.00 0.00 0.00 6 1023.5
20260509045118 65 90 3.0 9.0 0.00 0.00 0.00 6 1023.5
20260509044118 66 167 4.0 9.0 0.00 0.00 0.00 6 1023.4
20260509043118 66 106 4.0 6.0 0.00 0.00 0.00 6 1023.4
20260509042118 66 164 2.0 5.0 0.00 0.00 0.00 6 1023.3
20260509041118 66 175 3.0 5.0 0.00 0.00 0.00 6 1023.2
20260509040117 67 145 4.0 5.0 0.00 0.00 0.00 6 1023.3
20260509035117 67 133 8.0 12.0 0.00 0.00 0.00 5 1023.3
20260509034117 67 137 5.0 8.0 0.00 0.00 0.00 5 1023.2
20260509033117 68 0 0.0 3.0 0.00 0.00 0.00 5 1023.3
20260509032117 67 157 2.0 5.0 0.00 0.00 0.00 5 1023.4
20260509031117 67 0 0.0 2.0 0.00 0.00 0.00 5 1023.4
20260509030117 68 123 1.0 1.0 0.00 0.00 0.00 5 1023.5
20260509025117 67 0 0.0 4.0 0.00 0.00 0.00 5 1023.6
20260509024117 67 0 0.0 3.0 0.00 0.00 0.00 5 1023.7
20260509023117 68 230 4.0 5.0 0.00 0.00 0.00 5 1023.9
20260509022117 67 141 2.0 5.0 0.00 0.00 0.00 5 1024.0
20260509021117 67 230 1.0 6.0 0.00 0.00 0.00 5 1024.1
20260509020117 68 210 1.0 4.0 0.00 0.00 0.00 5 1024.2
20260509015117 66 175 1.0 6.0 0.00 0.00 0.00 5 1024.4
20260509014117 67 185 2.0 5.0 0.00 0.00 0.00 5 1024.5
20260509013117 67 216 2.0 5.0 0.00 0.00 0.00 5 1024.5
20260509012117 66 195 1.0 4.0 0.00 0.00 0.00 5 1024.6
20260509011117 66 237 2.0 5.0 0.00 0.00 0.00 5 1024.6
20260509010117 65 216 2.0 7.0 0.00 0.00 0.00 5 1024.5
20260509005117 64 239 4.0 7.0 0.00 0.00 0.00 5 1024.6
20260509004117 65 233 2.0 7.0 0.00 0.00 0.00 5 1024.6
20260509003117 64 238 2.0 9.0 0.00 0.00 0.00 5 1024.6
20260509002117 64 198 1.0 9.0 0.00 0.00 0.00 6 1024.7
20260509001150 63 231 7.0 7.0 0.00 0.00 0.00 6 1024.8
20260509001117 63 231 7.0 7.0 0.00 0.00 0.00 6 1024.8
20260509000117 62 233 3.0 5.0 0.00 0.00 0.00 6 1024.7
20260508235117 62 262 9.0 9.0 0.00 0.00 0.00 6 1024.8
20260508234117 61 216 9.0 12.0 0.00 0.00 0.00 6 1025.0
20260508233117 61 219 4.0 11.0 0.00 0.00 0.00 6 1024.9
20260508232117 60 248 9.0 10.0 0.00 0.00 0.00 6 1024.8
20260508231117 60 189 3.0 14.0 0.00 0.00 0.00 6 1024.8
20260508230117 59 245 12.0 14.0 0.00 0.00 0.00 6 1024.8
20260508225117 59 245 11.0 13.0 0.00 0.00 0.00 6 1024.8
20260508224117 58 249 5.0 16.0 0.00 0.00 0.00 6 1024.7
20260508223117 58 250 5.0 13.0 0.00 0.00 0.00 6 1024.8
20260508222117 57 256 8.0 12.0 0.00 0.00 0.00 7 1024.7
20260508221117 57 249 11.0 14.0 0.00 0.00 0.00 7 1024.6
20260508220117 57 249 9.0 14.0 0.00 0.00 0.00 7 1024.5
20260508215116 56 231 13.0 13.0 0.00 0.00 0.00 7 1024.5
20260508214116 56 266 7.0 10.0 0.00 0.00 0.00 7 1024.3
20260508213116 56 236 9.0 16.0 0.00 0.00 0.00 7 1024.3
20260508212116 55 250 12.0 12.0 0.00 0.00 0.00 7 1024.1
20260508211116 55 247 4.0 8.0 0.00 0.00 0.00 7 1023.9
20260508210116 55 235 4.0 11.0 0.00 0.00 0.00 7 1023.8
20260508205116 55 256 4.0 8.0 0.00 0.00 0.00 7 1023.6
20260508204116 55 237 5.0 8.0 0.00 0.00 0.00 7 1023.6
20260508203116 56 259 7.0 14.0 0.00 0.00 0.00 7 1023.5
20260508202116 56 258 9.0 11.0 0.00 0.00 0.00 7 1023.3
20260508201116 57 237 10.0 14.0 0.00 0.00 0.00 7 1023.2
20260508200116 57 264 10.0 14.0 0.00 0.00 0.00 7 1023.1
20260508195116 57 238 4.0 11.0 0.00 0.00 0.00 7 1023.0
20260508194116 56 227 10.0 12.0 0.00 0.00 0.00 7 1022.9
20260508193116 56 241 11.0 11.0 0.00 0.00 0.00 7 1022.6
20260508192116 56 235 5.0 8.0 0.00 0.00 0.00 7 1022.6
20260508191116 56 282 4.0 10.0 0.00 0.00 0.00 7 1022.5
20260508190116 56 239 3.0 11.0 0.00 0.00 0.00 7 1022.5
20260508185116 56 245 6.0 9.0 0.00 0.00 0.00 7 1022.5
20260508184116 56 235 2.0 10.0 0.00 0.00 0.00 7 1022.4
20260508183116 56 255 11.0 11.0 0.00 0.00 0.00 7 1022.4
20260508182116 56 241 9.0 11.0 0.00 0.00 0.00 7 1022.3
20260508181116 56 252 8.0 9.0 0.00 0.00 0.00 7 1022.2
20260508180116 56 254 8.0 9.0 0.00 0.00 0.00 6 1022.0
20260508175116 56 244 5.0 9.0 0.00 0.00 0.00 6 1022.0
20260508174116 56 248 6.0 10.0 0.00 0.00 0.00 6 1022.0
20260508173116 56 251 6.0 11.0 0.00 0.00 0.00 6 1022.0
20260508172116 56 252 10.0 12.0 0.00 0.00 0.00 6 1021.9
20260508171116 56 251 9.0 9.0 0.00 0.00 0.00 6 1022.0
20260508170116 56 245 2.0 8.0 0.00 0.00 0.00 6 1022.1
20260508165116 56 251 3.0 8.0 0.00 0.00 0.00 6 1022.0
20260508164116 56 239 1.0 9.0 0.00 0.00 0.00 6 1022.1
20260508163116 56 238 4.0 12.0 0.00 0.00 0.00 6 1022.1
20260508162116 56 245 5.0 9.0 0.00 0.00 0.00 7 1022.1
20260508161116 55 247 8.0 11.0 0.00 0.00 0.00 7 1022.1
20260508160115 56 228 10.0 10.0 0.00 0.00 0.00 6 1022.0
20260508155115 56 243 4.0 8.0 0.00 0.00 0.00 6 1022.0
20260508154115 56 254 7.0 10.0 0.00 0.00 0.00 6 1022.0
20260508153115 56 217 4.0 10.0 0.00 0.00 0.00 6 1022.1
20260508152115 56 229 2.0 13.0 0.00 0.00 0.00 6 1022.0
20260508151115 56 249 4.0 7.0 0.00 0.00 0.00 6 1022.0
20260508150114 56 247 3.0 13.0 0.00 0.00 0.00 6 1022.0
20260508145114 56 252 9.0 10.0 0.00 0.00 0.00 6 1022.0
20260508144114 56 237 6.0 12.0 0.00 0.00 0.00 6 1022.0
20260508143114 57 249 8.0 11.0 0.00 0.00 0.00 6 1022.0
20260508142114 57 214 5.0 11.0 0.00 0.00 0.00 6 1022.0
20260508141114 57 244 11.0 13.0 0.00 0.00 0.00 6 1022.1
20260508140113 57 235 10.0 10.0 0.00 0.00 0.00 6 1022.0
20260508135113 57 240 7.0 12.0 0.00 0.00 0.00 6 1021.9
20260508134113 57 251 8.0 10.0 0.00 0.00 0.00 6 1021.8
20260508133113 57 254 8.0 12.0 0.00 0.00 0.00 6 1021.8
20260508132113 58 237 3.0 12.0 0.00 0.00 0.00 6 1021.9
20260508131113 58 221 10.0 13.0 0.00 0.00 0.00 6 1021.9
20260508130113 58 239 4.0 9.0 0.00 0.00 0.00 6 1021.8
20260508125112 58 237 7.0 9.0 0.00 0.00 0.00 6 1021.8
20260508124112 58 254 3.0 11.0 0.00 0.00 0.00 6 1021.7
20260508123111 58 239 5.0 9.0 0.00 0.00 0.00 6 1021.8
20260508122111 58 233 6.0 11.0 0.00 0.00 0.00 6 1021.7
20260508121111 58 247 3.0 8.0 0.00 0.00 0.00 6 1021.8
20260508120110 58 250 4.0 10.0 0.00 0.00 0.00 6 1021.8
20260508115110 57 249 10.0 12.0 0.00 0.00 0.00 6 1021.7
20260508114110 58 243 5.0 11.0 0.00 0.00 0.00 6 1021.7
20260508113110 58 250 11.0 12.0 0.00 0.00 0.00 6 1021.7
20260508112110 58 256 5.0 11.0 0.00 0.00 0.00 6 1021.6
20260508111110 58 235 4.0 7.0 0.00 0.00 0.00 6 1021.5
20260508110110 58 239 6.0 11.0 0.00 0.00 0.00 6 1021.3
20260508105110 58 240 11.0 12.0 0.00 0.00 0.00 6 1021.3
20260508104110 58 261 3.0 10.0 0.00 0.00 0.00 6 1021.1
20260508103110 58 240 9.0 12.0 0.00 0.00 0.00 6 1021.1
20260508102110 58 256 4.0 7.0 0.00 0.00 0.00 6 1021.1
20260508101110 59 247 4.0 11.0 0.00 0.00 0.00 6 1020.9
20260508100110 59 205 1.0 8.0 0.00 0.00 0.00 6 1020.8
20260508095110 59 236 2.0 10.0 0.00 0.00 0.00 6 1020.8
20260508094110 59 249 8.0 11.0 0.00 0.00 0.00 6 1020.6
20260508093110 59 249 6.0 13.0 0.00 0.00 0.00 6 1020.4